Theta_e
333 336 338 339 340 340 341 340 340 339 340 340 339 340 339 338 336 334 334 334 333 333 333 333 333 333 333 333 334 335 335 335 336 336 336 336 337 337 335 333 332 333 335 336 336 334 333 333 334 334 334 333 332 333 332 332 331 328 327 327 326 326 326 325 324 324 324 324 323 323 326 328 329 328 329 327 323 322 319 322 328 329 327 323 321
333 335 338 339 339 340 340 340 339 339 339 339 339 338 338 338 335 333 332 333 333 333 333 333 332 332 333 333 333 333 333 334 334 334 334 334 335 335 335 334 333 333 334 334 334 333 331 331 332 332 332 332 331 331 331 330 328 327 326 326 326 326 326 325 325 324 324 324 324 325 326 326 328 328 328 326 323 321 318 320 326 327 327 325 321
333 336 339 339 339 340 340 340 339 339 339 338 338 337 337 337 335 333 332 332 333 333 333 332 332 333 333 333 332 332 332 332 332 333 333 333 334 334 334 334 335 334 332 331 333 333 332 331 330 329 329 330 330 330 330 328 327 327 327 326 326 326 324 324 322 322 323 323 325 329 329 327 327 327 327 326 323 320 320 322 325 325 325 325 324
334 336 338 339 339 339 339 339 339 338 338 338 338 337 336 336 335 334 334 333 334 333 333 333 333 333 332 333 332 332 332 332 332 332 332 333 333 333 333 334 334 332 332 332 334 334 333 330 327 327 328 329 329 329 329 328 327 327 326 326 325 323 322 320 318 317 316 318 323 328 328 328 328 327 326 325 325 323 323 324 324 325 325 325 324
334 335 336 339 338 339 339 338 338 338 337 337 337 336 336 336 336 335 334 334 333 332 332 333 333 332 332 333 333 333 333 332 332 332 331 332 332 333 333 334 332 331 333 334 334 334 331 328 327 327 327 328 328 328 328 327 326 325 325 324 323 321 320 318 316 313 313 317 324 327 327 327 327 327 327 326 325 324 324 324 325 324 324 324 324
334 335 336 338 339 338 337 337 337 337 337 337 336 336 336 337 336 334 333 332 331 331 331 332 331 331 331 332 332 332 332 332 332 332 332 331 331 332 333 334 331 331 333 333 333 333 331 329 327 326 326 327 326 327 326 326 325 324 323 323 322 320 319 318 315 314 319 324 325 326 325 325 326 326 326 326 325 325 325 324 324 324 324 323 323
334 335 335 338 339 337 337 337 336 336 336 337 337 335 335 336 336 334 332 330 330 333 332 332 332 332 331 330 331 331 331 332 332 331 330 330 331 331 332 333 332 332 333 333 332 332 332 330 329 326 325 326 326 325 325 325 324 324 323 322 321 320 319 318 316 319 324 326 325 325 324 325 325 325 325 325 325 324 325 324 324 323 324 323 321
334 334 335 337 338 336 336 336 335 336 336 336 336 336 335 335 335 334 332 330 330 331 330 331 332 333 332 330 330 331 331 331 331 330 329 330 330 331 331 332 331 332 332 333 332 332 331 330 330 328 325 325 325 325 325 324 324 323 321 320 320 320 319 318 319 322 325 325 325 325 324 325 325 324 324 324 323 323 323 324 324 323 324 322 321
333 334 334 336 337 335 333 334 335 336 336 336 336 337 335 333 333 333 332 331 331 330 329 330 332 332 331 330 331 331 331 330 330 330 329 329 329 329 330 330 331 331 331 331 332 332 331 329 329 329 326 325 325 324 324 323 322 321 321 320 320 320 320 319 321 323 325 324 324 325 325 325 324 324 324 324 323 322 321 323 323 322 323 322 321
333 334 334 336 335 333 332 333 335 337 336 336 337 336 335 333 332 332 331 332 332 330 330 331 332 332 329 328 330 330 329 330 330 329 329 329 329 329 330 330 331 331 331 332 332 331 330 328 328 329 327 325 324 323 322 322 322 321 321 321 320 321 320 321 322 322 324 324 323 324 324 324 324 323 323 323 323 322 321 321 322 322 322 321 322
333 334 334 335 334 332 332 334 336 336 336 336 337 335 334 333 333 331 328 331 332 330 331 331 332 332 330 328 329 330 330 331 331 330 329 329 329 330 330 331 331 331 331 331 330 330 329 328 328 328 327 326 325 323 322 322 322 322 322 321 321 321 320 322 323 322 323 323 323 323 323 324 324 323 323 323 322 322 320 320 321 322 322 321 322
333 334 335 335 333 331 332 335 336 336 337 336 335 333 332 332 333 330 326 330 331 330 331 332 333 332 331 330 329 330 331 331 330 329 329 329 329 329 330 330 330 330 330 330 330 330 329 328 327 326 326 326 325 324 323 322 322 322 322 321 321 321 320 322 323 323 322 323 323 323 323 324 323 323 323 322 322 322 321 320 320 322 322 322 322
333 334 335 334 333 332 332 334 336 336 336 336 334 332 331 330 331 331 327 329 330 330 330 332 333 331 330 329 329 329 329 329 329 329 329 329 329 328 329 330 330 330 330 329 329 329 328 327 326 325 326 325 325 324 323 323 322 322 322 321 321 321 321 322 323 323 322 322 323 323 323 324 323 322 322 322 322 322 322 321 320 321 321 321 322
333 333 335 334 333 333 331 333 335 336 336 335 334 331 330 328 328 331 330 330 329 329 329 329 331 328 325 327 330 330 328 328 327 328 328 328 329 328 328 329 329 330 330 330 329 328 327 327 326 325 325 325 325 324 323 323 322 322 321 321 321 321 321 323 323 323 323 322 322 323 323 323 322 322 322 322 322 321 322 321 320 320 320 320 321
333 333 334 334 333 333 331 333 335 336 335 334 332 331 329 325 327 330 330 330 329 329 329 329 330 328 325 328 332 330 328 326 327 327 327 327 328 328 328 328 328 329 329 328 328 328 326 326 325 324 324 323 324 323 323 323 322 322 321 321 321 320 321 323 324 323 323 322 322 322 322 322 322 323 324 323 322 321 321 321 321 320 320 320 320
332 333 334 334 333 333 332 332 333 334 334 333 332 330 327 324 328 330 329 330 328 328 330 329 330 329 328 329 330 329 328 326 326 327 328 328 328 328 328 328 327 327 327 327 328 327 326 326 325 323 323 323 323 323 322 322 322 322 322 321 321 320 320 322 324 323 323 322 322 322 322 322 322 324 325 323 323 321 321 321 321 320 320 320 319
332 332 333 333 333 333 333 333 332 333 333 333 332 330 325 324 328 330 329 329 327 328 328 329 331 331 330 330 328 328 328 325 324 325 327 327 327 327 327 328 327 327 327 327 327 327 326 325 325 323 323 323 323 323 322 322 322 322 322 321 320 320 319 322 324 323 323 323 322 322 322 321 322 324 325 323 323 322 321 322 321 321 321 320 320
331 332 332 332 332 332 334 333 332 332 333 332 331 329 325 324 328 330 330 328 327 328 328 328 330 331 330 329 328 328 327 325 324 322 322 324 325 324 324 326 326 326 325 325 325 325 326 325 324 323 323 323 323 323 322 322 322 322 321 321 320 320 320 322 324 323 323 323 323 323 321 321 321 323 325 323 323 323 323 322 323 322 322 321 321
331 332 331 332 331 331 333 333 332 332 332 332 330 329 326 323 327 329 329 329 327 327 327 327 328 329 328 327 328 329 326 325 326 324 323 325 324 321 320 322 324 324 324 324 324 324 325 324 323 324 323 323 323 323 322 322 322 322 321 321 320 320 321 323 323 323 324 323 322 323 321 321 321 322 325 325 323 325 324 323 323 323 322 323 322
331 331 331 331 332 331 332 332 331 331 331 331 330 329 326 324 327 329 329 329 327 326 325 325 326 327 327 326 326 327 326 325 326 326 326 326 324 320 315 317 321 323 324 324 324 324 324 323 322 322 322 322 322 322 322 322 322 322 321 321 320 322 323 323 323 323 323 322 323 323 321 321 321 321 324 326 326 326 326 325 324 323 323 323 323
330 331 331 331 332 331 331 332 331 330 331 331 330 329 325 323 326 328 329 329 328 326 324 324 325 324 325 326 325 325 326 326 326 326 326 324 322 317 312 312 315 318 322 323 323 323 322 321 321 321 321 321 321 321 321 321 321 321 321 320 321 323 324 323 323 323 323 323 323 322 321 321 321 321 323 325 326 326 326 325 324 324 324 324 325
329 330 330 330 331 331 331 331 330 329 331 330 328 327 324 324 326 326 328 329 327 325 323 324 324 322 322 323 323 322 324 326 325 324 323 321 317 314 311 311 311 312 316 317 319 320 319 320 320 320 320 320 320 321 321 320 320 320 320 320 322 324 323 323 323 323 323 322 322 320 318 319 319 320 322 324 325 325 325 325 324 325 325 326 326
328 329 329 330 330 330 331 331 330 328 328 327 325 326 325 326 326 324 325 327 326 325 324 324 324 322 320 321 322 319 319 321 322 321 318 316 313 312 310 310 309 309 311 313 315 316 317 318 318 318 319 319 319 320 320 320 321 320 320 322 323 322 321 322 321 321 322 320 319 318 316 317 317 317 319 323 325 325 325 324 325 325 326 326 326
328 329 329 329 329 329 330 331 329 325 325 325 323 326 326 326 326 323 322 323 323 323 325 324 323 321 319 321 320 316 316 316 316 315 314 313 312 312 311 311 310 308 310 312 314 315 315 316 317 317 318 318 318 319 320 321 321 322 322 322 322 321 321 321 321 321 322 321 321 320 319 319 318 318 318 320 323 323 324 325 325 325 325 326 326
327 328 329 329 329 329 329 330 328 323 324 323 321 324 327 326 326 324 322 320 319 319 321 321 320 319 319 320 317 315 314 313 313 313 313 314 313 312 312 312 312 309 309 311 312 313 313 314 315 315 315 315 316 317 318 320 321 322 323 322 323 323 323 323 323 323 323 323 323 323 322 322 321 321 320 320 320 321 323 324 325 325 325 326 326
326 327 328 329 329 329 328 328 328 325 325 324 321 322 325 326 326 325 323 321 317 315 315 316 317 317 317 317 315 314 314 315 315 316 318 319 317 315 315 315 315 313 312 312 313 313 313 314 315 315 316 317 319 319 319 321 321 323 323 323 323 323 324 324 324 324 324 324 325 325 324 324 324 323 323 322 322 322 324 325 325 325 326 326 326
325 326 327 328 328 329 328 327 327 326 325 325 323 320 321 326 325 322 321 320 317 314 314 314 314 314 314 315 316 317 318 320 320 320 321 322 321 320 320 320 320 319 317 317 318 318 318 318 319 319 320 322 323 322 322 322 322 322 322 323 322 322 323 323 324 324 324 324 324 324 325 325 325 325 324 324 324 323 324 325 325 325 326 326 326
325 325 326 326 327 328 328 327 326 325 325 325 325 322 319 322 322 318 317 317 315 315 316 315 313 314 314 315 319 321 323 324 324 324 323 322 323 323 323 323 323 323 322 322 322 322 322 322 322 322 323 324 324 323 323 323 323 322 322 323 322 322 323 323 324 324 323 323 323 322 323 323 324 324 324 324 324 323 324 324 324 325 325 325 325
327 324 323 323 323 325 326 326 326 325 325 325 325 324 321 319 317 316 316 315 314 315 318 318 316 315 316 318 321 323 325 325 325 325 325 324 324 324 324 324 324 324 324 324 324 324 324 324 323 323 323 324 324 323 323 324 324 323 323 323 322 322 322 323 324 323 322 322 323 322 322 322 322 322 322 323 323 323 323 322 322 322 323 323 324
330 326 322 320 320 321 322 324 325 324 324 325 325 324 324 321 318 316 316 315 314 314 315 318 320 319 319 321 322 324 325 327 326 326 326 326 325 324 325 325 325 326 325 325 325 325 325 324 324 324 324 324 324 324 323 323 324 324 323 322 323 322 321 321 322 322 322 323 323 322 321 321 321 321 322 323 322 322 321 320 319 318 319 321 322
332 329 325 320 318 319 320 321 322 322 322 324 323 323 323 323 320 318 317 316 316 315 315 316 319 321 323 324 325 326 326 327 327 326 327 327 326 325 326 326 326 326 326 326 326 325 325 325 325 325 325 325 325 324 323 323 323 324 323 323 324 323 322 321 321 321 322 323 323 321 321 321 321 321 321 321 321 321 320 319 318 317 317 318 319
333 332 329 324 320 317 319 319 319 319 320 322 321 321 321 321 321 319 318 317 316 316 316 316 317 319 321 323 324 325 326 326 326 325 326 328 327 326 326 327 327 326 326 326 326 325 325 325 325 325 325 324 325 324 324 323 323 323 323 323 324 323 323 322 321 322 323 324 322 320 320 320 321 321 320 320 319 319 319 319 318 318 317 317 317
333 333 332 328 323 318 317 318 318 318 318 319 319 318 318 319 319 318 317 317 317 317 317 317 317 317 318 318 320 320 322 324 325 326 327 328 327 326 327 327 326 325 325 325 325 324 324 325 325 325 324 324 324 324 324 323 323 323 324 324 323 324 323 323 323 323 324 323 321 319 319 319 320 320 319 319 318 318 318 319 318 318 318 317 317
334 333 333 332 328 323 319 317 317 318 318 318 317 317 317 317 317 316 316 316 316 316 316 316 316 317 317 316 317 318 320 324 325 327 327 328 327 327 327 326 325 325 324 324 324 324 324 324 324 324 324 324 323 323 323 322 323 324 324 324 324 324 324 324 324 324 324 322 319 319 319 319 319 319 318 318 317 316 316 318 318 318 317 316 315
334 333 333 333 331 328 323 319 318 317 318 318 317 318 317 317 317 316 317 317 317 317 317 317 316 315 316 316 317 318 323 326 326 328 328 327 327 327 326 326 325 324 325 325 325 324 324 324 324 324 324 323 323 323 323 323 324 324 324 324 325 325 324 324 324 323 322 320 319 319 319 319 318 317 317 317 316 314 315 317 317 316 314 313 313
334 333 333 333 333 332 329 324 321 318 318 318 318 318 318 319 319 318 319 320 321 323 324 324 321 318 319 321 320 322 327 328 328 329 328 327 328 327 326 326 326 325 325 325 325 324 325 325 324 324 324 324 324 324 324 324 324 325 325 325 325 325 325 324 324 322 321 320 320 320 319 319 317 315 314 314 315 313 313 313 312 310 309 310 310
333 333 333 333 333 333 332 330 326 322 319 320 320 320 321 321 321 322 323 324 326 329 330 330 327 323 324 326 326 327 329 329 329 329 328 328 328 328 328 327 326 326 326 325 325 325 325 325 324 324 324 324 324 324 324 325 325 325 325 325 326 326 325 324 323 321 320 319 320 320 319 318 315 312 311 310 310 309 306 304 303 304 305 306 307
332 332 333 332 333 333 333 332 330 328 324 323 323 323 323 325 325 325 327 328 330 332 332 332 330 328 327 328 329 329 329 329 329 329 328 328 328 328 328 327 327 326 326 326 325 325 325 325 325 324 324 324 324 325 325 325 325 325 325 325 325 325 325 323 322 321 320 319 320 319 317 317 314 307 305 304 304 302 299 298 300 300 302 302 302
332 332 332 332 332 332 332 332 331 331 329 327 327 327 326 326 326 327 329 330 332 332 333 333 332 331 330 329 330 330 330 329 329 328 328 328 327 327 327 327 327 327 326 326 326 326 325 326 326 325 325 325 325 325 325 325 325 325 325 325 324 324 324 322 321 320 319 319 320 318 316 316 312 303 299 299 299 297 297 298 298 297 298 298 298
332 332 332 332 331 331 331 331 331 331 331 331 330 330 329 328 328 329 330 331 332 332 332 333 333 333 332 331 330 330 330 330 329 329 328 328 328 328 328 327 327 327 327 326 326 326 326 326 326 326 325 325 325 325 325 324 324 325 324 324 324 323 322 321 321 320 319 320 319 317 315 314 308 300 297 296 296 296 297 297 296 296 295 295 295
332 332 332 332 332 331 331 331 331 331 331 332 332 331 331 331 331 331 331 332 332 332 333 333 333 333 333 332 331 331 330 330 329 328 328 328 329 329 329 328 327 327 327 327 327 326 327 326 326 325 325 326 325 325 324 324 324 324 324 323 323 323 321 320 321 319 318 320 319 315 313 309 302 297 296 296 295 296 296 296 295 295 295 294 294
331 332 332 332 332 332 332 332 332 331 331 332 332 332 332 333 332 332 333 332 332 333 333 333 332 333 333 333 332 331 330 329 329 328 329 329 329 329 329 327 327 327 327 327 327 327 327 327 326 325 326 326 326 325 323 323 324 324 323 323 323 322 320 320 321 319 318 320 318 311 306 302 297 295 296 296 295 296 296 296 295 294 294 294 293
330 331 331 332 332 332 332 332 332 332 332 333 333 333 333 333 333 333 333 333 333 333 333 333 333 332 332 332 333 332 331 330 329 328 329 329 329 329 328 328 327 327 327 327 327 327 327 326 326 326 326 326 326 325 322 323 324 323 323 322 321 321 321 321 320 319 318 318 316 308 300 298 297 295 296 296 295 295 296 295 294 294 294 293 294
330 330 330 331 331 331 332 332 332 333 333 333 333 333 333 333 333 334 333 333 333 332 333 333 333 332 332 332 332 332 332 331 330 329 329 329 328 328 328 328 328 328 327 327 327 327 326 326 325 325 326 325 325 324 323 322 322 322 322 320 320 320 320 320 319 318 318 316 316 311 301 297 297 295 295 295 295 295 296 295 294 294 293 293 295
330 330 330 330 330 331 331 331 332 332 332 332 332 333 333 333 333 333 333 333 332 332 332 332 331 332 332 332 333 333 333 332 331 330 330 328 327 328 328 328 328 328 327 327 327 327 326 326 326 325 326 325 325 324 322 321 321 321 321 319 320 320 318 318 317 318 316 312 312 312 304 296 295 295 294 295 294 295 295 294 294 293 293 295 296
329 330 330 330 330 330 330 330 331 332 332 332 332 332 333 333 332 332 332 332 331 331 331 331 330 330 331 332 332 334 333 332 332 331 330 329 327 328 328 328 328 328 327 327 327 327 326 326 326 325 326 326 325 323 321 320 320 320 319 318 319 320 318 317 316 315 313 308 305 306 302 296 295 295 294 294 294 295 295 294 294 293 294 296 296
328 328 329 329 329 329 330 330 330 331 331 331 331 332 333 332 332 332 331 331 331 331 331 331 330 330 331 331 332 333 332 331 332 331 331 330 329 329 328 327 328 328 328 327 327 327 327 326 325 325 326 325 324 323 321 320 319 319 317 316 316 317 316 315 315 313 310 307 304 301 299 295 294 294 294 294 295 295 294 293 293 293 294 295 294
325 326 326 326 327 328 329 329 329 329 329 330 331 331 332 332 332 332 331 331 331 331 331 330 330 330 330 331 331 332 331 332 332 331 330 330 330 330 328 327 328 327 326 326 327 327 327 327 325 325 324 323 322 322 321 319 319 318 315 314 315 314 314 313 313 312 308 306 305 305 303 298 296 295 293 294 295 294 294 293 293 293 293 293 293
321 323 322 324 326 327 328 329 329 329 328 329 329 330 331 331 332 332 331 331 331 331 331 331 330 330 330 330 330 330 331 333 333 331 331 330 328 329 329 328 328 327 326 327 327 327 327 326 324 323 322 321 320 320 319 318 317 316 314 313 312 311 311 311 310 309 307 305 303 304 304 301 299 298 295 293 294 294 294 293 292 292 293 293 293
318 319 320 323 325 326 327 328 328 328 328 328 328 329 330 330 331 331 331 331 331 331 331 331 331 330 330 330 330 330 331 332 333 332 330 327 327 328 329 328 327 327 327 327 326 326 325 324 323 322 321 320 319 319 317 316 314 313 313 312 312 310 310 310 308 306 305 305 303 303 303 301 299 299 296 293 293 295 294 293 293 293 292 292 293
314 316 318 321 323 324 325 326 327 328 328 328 328 329 329 329 330 331 331 331 331 331 331 331 330 330 330 330 330 329 330 330 332 331 328 327 328 329 328 327 327 327 326 325 324 324 323 322 322 321 320 319 318 317 315 313 312 311 310 310 310 309 308 308 307 304 304 304 302 301 302 300 298 299 297 293 292 295 294 295 296 293 292 292 293
Wind_Speed
12 12 10 10 11 10 10 10 10 10 10 11 12 13 13 14 13 13 14 15 15 16 17 17 18 17 16 15 14 14 14 14 14 15 16 16 16 17 18 18 18 17 18 18 18 19 18 18 18 18 17 17 17 17 17 17 18 19 19 19 19 19 18 18 18 17 17 17 17 17 18 19 17 16 15 14 13 14 14 15 15 15 16 16 16
15 13 11 10 11 11 11 10 11 11 11 12 13 13 13 13 13 14 14 14 16 17 17 16 17 16 16 16 15 14 14 14 14 15 16 16 16 17 17 17 17 17 17 17 17 17 17 17 17 17 17 16 16 16 17 18 18 18 18 18 18 18 18 17 16 16 16 15 16 17 17 17 18 16 15 13 13 14 15 15 15 15 15 16 16
16 14 11 11 11 11 11 11 11 12 12 13 13 13 13 13 13 14 15 15 16 16 16 16 17 16 16 16 15 15 14 15 15 15 16 16 16 17 17 17 17 18 18 16 16 16 16 16 16 16 16 16 16 16 17 18 18 18 18 18 17 17 17 17 16 15 14 13 15 16 15 16 18 17 15 15 15 16 16 16 16 15 16 16 16
15 13 10 11 11 11 11 11 12 12 13 13 13 13 13 13 13 15 15 16 16 15 16 16 16 16 16 16 16 15 15 16 16 15 15 16 16 17 16 16 17 18 17 15 16 16 16 16 16 16 16 16 16 16 17 18 18 17 17 17 17 16 16 16 15 14 12 11 14 14 12 14 16 17 16 17 17 17 17 16 16 15 15 16 16
15 12 11 11 10 11 11 11 11 12 12 12 12 13 14 14 14 14 15 15 15 15 15 14 15 15 16 15 15 15 16 16 15 15 15 15 16 17 16 16 16 16 16 15 16 16 16 16 16 16 17 16 16 16 17 17 17 17 16 16 16 15 15 15 14 13 13 14 15 13 12 13 14 16 15 15 16 16 16 15 15 14 14 14 14
14 12 12 10 9 11 11 11 11 11 11 11 12 14 15 14 13 13 14 15 14 14 14 13 14 15 14 14 14 15 15 15 15 15 16 15 15 16 16 16 16 15 15 15 15 15 15 15 16 16 16 16 16 16 16 16 16 16 15 15 15 15 14 15 14 14 15 15 14 13 13 13 13 14 15 14 14 14 15 14 14 14 14 14 13
13 12 12 10 9 10 11 10 11 11 10 11 14 16 16 14 13 13 14 15 14 13 14 14 14 14 14 13 14 14 14 14 14 14 15 16 15 16 15 15 15 15 15 15 14 15 15 15 15 16 16 15 15 15 15 15 15 15 15 15 15 15 16 16 16 17 16 14 13 13 13 13 13 14 15 15 14 14 14 14 15 15 14 15 14
13 12 12 10 9 10 11 10 10 11 10 12 14 16 16 15 13 13 14 14 14 13 13 14 13 14 14 14 13 14 14 14 14 14 15 15 14 15 15 15 15 15 15 14 14 14 14 14 14 14 14 15 15 15 14 14 15 15 15 16 16 17 18 18 18 17 15 14 14 13 13 13 13 13 15 15 15 15 14 14 14 15 15 15 16
12 11 11 10 9 11 10 10 10 11 11 12 14 15 15 14 13 12 13 14 13 12 13 13 13 13 14 13 13 14 14 13 14 14 15 15 14 15 15 15 14 15 14 14 14 14 14 13 13 13 13 13 14 14 14 14 15 16 16 16 17 17 18 19 18 16 14 14 14 14 14 13 13 13 15 15 16 16 14 14 13 14 15 16 17
11 11 11 10 10 11 10 11 11 11 11 12 14 14 13 12 11 11 13 13 11 11 13 12 12 12 13 13 13 13 13 13 14 15 15 14 15 14 14 14 14 15 14 14 14 13 13 13 13 12 12 12 13 14 14 15 15 16 17 17 17 18 18 19 17 15 14 14 14 15 15 14 13 14 14 14 15 15 14 14 14 13 13 14 15
10 10 11 10 10 11 12 12 11 11 12 13 13 13 12 11 10 11 13 14 11 10 12 12 11 12 14 14 13 13 13 13 14 14 14 13 14 13 13 13 13 14 13 13 13 13 12 12 12 11 11 12 12 13 14 15 15 16 16 16 17 17 18 18 15 14 14 14 14 14 14 14 13 14 13 14 14 14 14 13 13 13 12 13 13
10 10 11 10 11 11 12 13 12 12 12 12 11 11 11 11 11 11 13 14 11 11 12 10 10 12 14 14 13 13 13 13 13 13 13 13 13 13 13 13 13 12 12 12 12 12 12 11 11 10 11 11 11 12 13 14 14 15 15 15 16 16 18 18 14 14 14 13 13 13 13 13 13 13 13 13 14 14 14 13 12 12 11 12 12
11 11 11 11 11 10 11 11 12 12 12 11 11 10 10 10 11 11 13 13 11 11 11 9 10 11 11 12 13 13 12 13 13 12 13 13 13 13 12 12 12 12 11 11 11 11 10 10 10 10 10 11 11 11 11 12 12 13 14 14 14 15 16 16 14 13 14 12 12 13 13 13 12 12 12 12 12 13 13 13 13 11 11 11 11
11 12 12 11 11 10 9 10 12 13 12 11 10 10 8 8 11 12 12 13 12 12 10 7 9 9 8 10 13 14 13 12 12 12 12 12 12 12 12 11 11 11 10 10 10 10 9 9 9 9 10 10 10 10 10 11 11 12 13 12 13 14 14 13 13 13 13 12 11 12 12 12 12 11 12 11 11 12 12 12 13 12 11 10 9
11 12 12 11 10 9 9 10 11 12 11 10 9 8 7 9 12 12 11 12 12 12 9 6 7 8 8 9 12 14 13 12 12 12 12 11 11 11 11 10 9 9 9 9 9 8 8 8 8 8 8 9 9 9 10 10 11 11 12 12 12 14 14 12 11 12 12 12 11 11 12 10 10 11 10 10 10 10 11 12 13 14 12 11 9
11 11 11 11 11 10 10 10 11 10 10 9 8 7 9 12 14 13 11 12 12 12 10 8 8 10 10 9 11 11 10 11 12 12 12 12 11 10 10 9 9 8 8 8 8 7 6 6 7 7 7 7 8 8 9 9 10 11 11 11 12 13 14 12 10 11 11 11 11 10 10 8 9 13 10 9 10 8 12 15 14 17 15 13 12
11 11 11 11 11 11 10 10 11 10 10 8 7 7 10 13 14 14 13 12 13 13 11 10 10 11 11 10 9 9 8 9 10 11 11 10 10 9 9 9 9 8 7 7 7 6 6 5 5 5 5 6 6 7 8 8 9 10 10 11 12 12 14 13 9 9 10 10 10 9 9 8 9 13 11 11 11 9 13 15 15 18 17 15 14
11 11 11 11 11 11 10 10 11 10 9 8 7 7 8 12 14 14 13 12 13 14 12 10 9 9 10 9 9 9 10 8 8 9 10 9 8 8 8 8 7 7 6 6 5 5 5 4 3 2 3 4 4 5 6 7 8 9 10 11 11 12 13 12 9 8 9 9 9 8 9 10 8 9 11 12 11 10 12 14 15 17 17 16 14
11 11 11 11 11 11 11 10 10 10 9 8 8 7 8 11 13 13 13 12 12 13 12 10 8 7 7 7 8 8 8 7 8 9 8 7 7 7 6 7 7 6 5 5 5 5 4 3 2 1 1 2 3 4 5 7 7 8 9 10 11 12 12 11 8 8 8 8 8 7 9 11 9 8 11 11 11 12 11 13 15 16 17 16 14
11 11 11 11 11 11 12 11 10 10 9 8 8 8 8 11 13 13 13 12 11 11 11 10 9 7 6 6 6 6 6 6 6 6 5 4 5 5 5 5 6 6 6 5 5 4 4 3 3 1 1 2 3 4 5 6 7 8 9 9 11 11 10 9 8 8 7 8 8 7 10 11 10 9 10 10 11 13 12 12 14 15 15 14 14
11 11 11 11 11 11 12 11 10 10 9 8 7 8 9 10 12 12 13 12 10 9 9 10 9 8 7 7 5 5 5 5 5 4 4 3 4 4 4 4 4 5 6 5 5 4 3 3 2 1 1 1 3 4 5 6 7 8 8 9 10 9 9 9 8 8 7 8 7 8 12 12 12 12 10 11 12 14 13 12 12 13 13 13 14
13 13 12 12 11 11 12 11 10 10 9 7 6 8 9 10 10 11 12 13 11 9 9 10 8 7 7 7 6 5 5 5 5 4 3 2 3 4 4 4 3 3 4 4 4 3 3 3 2 1 1 2 3 4 5 6 7 8 8 9 9 8 9 10 9 8 8 9 9 10 13 12 13 13 11 12 13 14 14 14 14 14 14 14 15
13 14 13 13 12 11 12 11 10 11 9 7 6 8 10 10 9 10 12 12 12 10 9 9 8 7 7 6 6 7 6 5 5 4 3 2 3 4 5 4 4 3 3 4 4 4 4 3 2 2 3 4 5 5 6 7 7 8 9 8 8 9 10 10 9 9 9 10 11 12 13 13 13 14 13 12 13 14 14 14 15 16 16 16 17
12 13 13 14 13 12 12 11 11 12 10 8 7 8 10 10 8 10 11 12 12 10 9 8 8 8 8 6 6 7 6 6 5 4 3 3 4 5 5 5 5 4 4 4 4 4 4 3 3 4 4 5 6 6 6 7 7 7 7 7 8 9 10 9 9 9 9 12 13 13 13 13 13 13 14 13 13 14 13 14 15 16 17 18 18
11 12 12 13 15 14 12 12 12 13 12 9 9 9 9 10 9 8 9 11 11 11 10 9 9 9 8 7 7 7 6 6 5 5 4 4 5 5 6 7 7 6 6 6 5 5 5 4 4 5 5 6 6 7 7 8 8 7 7 8 8 9 9 9 9 10 10 11 13 14 14 13 13 13 14 14 14 14 14 14 15 16 16 17 18
11 12 12 13 14 15 14 12 13 13 12 10 11 11 10 9 9 8 8 9 10 10 10 10 10 9 9 8 7 7 7 6 6 6 5 6 6 6 6 7 8 8 8 7 7 6 6 6 5 6 6 7 8 9 10 10 10 10 9 10 11 10 10 10 11 12 11 12 13 14 14 13 13 14 14 14 14 15 14 15 15 16 16 17 18
12 12 12 12 13 15 15 13 13 13 12 11 11 12 12 9 9 10 10 9 11 11 10 10 10 10 10 9 8 7 7 6 5 5 5 6 6 6 6 7 8 8 8 7 7 7 7 7 7 7 7 8 9 10 10 10 11 12 12 12 13 13 12 12 13 14 13 14 15 14 14 13 13 13 14 14 14 14 14 14 14 15 16 16 17
13 14 13 14 15 15 15 14 14 13 13 12 11 12 13 11 11 13 13 11 12 12 11 11 11 11 11 10 9 8 6 5 4 4 4 4 5 5 5 5 6 6 6 6 6 6 6 6 6 6 6 6 7 8 9 9 9 11 12 11 12 13 12 13 14 14 14 15 16 16 14 14 13 13 13 13 13 13 13 13 14 14 14 15 16
15 17 17 17 18 18 17 16 15 15 14 12 12 12 13 14 14 15 14 14 13 12 11 11 11 11 11 11 10 8 6 5 4 3 3 3 3 3 3 4 4 4 4 4 3 4 3 3 4 5 5 6 6 7 8 8 8 10 11 11 11 13 13 14 14 13 15 15 16 16 16 15 14 13 13 13 12 11 11 11 12 12 12 13 15
17 18 21 21 21 20 19 18 17 17 15 13 13 13 13 14 16 16 16 15 14 14 13 12 12 11 11 11 9 8 7 5 4 4 3 2 2 2 2 2 2 2 2 2 2 2 2 2 3 5 6 6 6 7 9 9 9 10 11 12 12 13 14 15 15 14 15 15 15 16 15 14 13 12 11 10 10 10 10 10 11 12 12 12 13
17 16 19 22 23 22 21 21 20 19 18 17 17 17 16 15 16 17 17 16 15 15 14 13 13 12 12 11 9 8 7 6 6 4 4 3 2 3 2 2 1 1 1 2 3 3 3 2 3 4 5 6 6 7 9 10 11 10 11 13 13 13 13 14 16 15 15 14 14 14 13 12 11 10 9 9 9 10 10 11 12 13 12 12 13
20 17 16 20 24 24 23 23 22 22 21 20 20 21 20 18 18 18 18 17 17 16 15 15 14 13 13 11 11 10 9 8 6 5 5 3 3 3 2 2 2 2 2 3 4 5 6 5 6 6 6 7 7 7 9 10 10 10 12 13 12 12 11 12 14 14 14 13 12 12 12 11 10 9 9 10 11 11 11 11 12 13 12 12 13
21 19 16 18 23 25 24 24 24 24 23 22 22 22 22 21 20 20 19 18 17 17 16 16 15 14 13 12 12 11 10 9 7 7 6 4 3 3 3 3 3 4 5 6 7 8 8 8 9 9 9 9 9 9 10 9 9 9 10 11 10 10 11 12 12 12 12 10 10 12 12 11 10 10 10 11 12 12 12 12 12 13 12 13 15
20 19 18 18 21 25 26 26 25 26 25 24 24 24 23 22 21 20 19 18 17 17 17 17 16 15 15 14 13 12 11 10 9 8 7 6 5 5 5 5 6 7 7 6 7 7 8 9 9 9 9 9 9 9 8 7 7 8 8 9 9 10 11 11 11 10 9 8 10 12 11 10 11 12 12 13 14 14 13 12 12 13 14 15 16
21 20 20 20 19 23 27 28 28 27 27 26 25 25 24 22 21 20 19 18 17 16 16 16 16 16 16 15 14 12 11 11 10 9 9 8 7 8 7 7 6 6 6 6 6 5 6 7 7 7 7 7 7 7 6 6 7 8 9 9 10 11 12 10 9 9 6 7 10 10 9 11 12 12 14 14 14 14 12 12 12 14 15 15 15
23 21 21 21 20 20 23 26 29 29 28 28 27 26 25 23 22 21 20 18 18 17 16 16 16 16 16 15 15 13 12 11 11 10 10 10 9 9 8 7 6 5 5 5 6 5 5 5 4 5 6 6 6 5 5 6 8 9 10 11 11 12 11 8 6 6 5 7 9 7 9 12 13 14 14 14 13 13 13 12 13 13 14 14 15
24 23 22 21 21 19 19 21 25 29 29 29 28 28 26 25 24 22 21 19 18 18 17 16 16 16 16 16 15 14 13 12 12 11 11 11 11 11 11 10 8 6 6 4 4 5 4 4 3 4 4 5 5 5 6 7 8 9 10 11 11 11 8 6 5 4 4 9 8 5 10 12 13 15 14 14 13 13 14 13 13 13 14 15 15
24 24 23 22 21 19 19 19 21 25 27 30 30 30 29 26 25 24 22 21 21 19 18 17 16 17 17 17 16 14 14 14 13 12 12 12 12 12 11 12 12 10 8 6 6 6 5 4 4 4 4 5 5 6 7 7 8 9 9 9 9 7 5 4 3 2 6 9 5 6 11 11 12 15 14 14 14 13 14 14 14 16 16 16 16
24 24 24 24 21 19 18 19 21 22 24 27 28 29 29 28 27 26 23 22 20 17 18 18 17 18 17 17 17 16 15 15 14 14 14 14 14 13 12 13 15 13 11 9 8 9 9 6 6 6 5 6 6 7 7 7 8 9 8 8 7 5 3 3 1 3 8 7 4 8 11 10 11 14 14 14 13 13 14 15 16 17 17 16 16
24 23 24 24 23 21 19 19 20 21 21 21 21 22 24 26 26 23 21 22 20 16 17 16 15 18 19 18 17 17 16 16 16 16 16 17 16 17 15 13 13 13 12 12 11 11 12 9 7 7 6 7 7 6 6 6 7 8 7 7 7 4 3 1 3 3 8 4 5 10 10 9 12 13 14 14 14 15 15 16 16 16 16 16 15
24 24 24 25 25 23 22 21 20 20 22 21 20 21 21 22 22 21 19 21 20 19 20 18 18 21 21 20 19 18 18 18 18 18 17 18 18 17 15 12 11 12 12 13 13 14 14 9 7 7 7 8 7 4 5 6 5 5 6 7 5 3 2 1 5 4 7 2 5 10 9 10 13 14 14 15 16 16 16 16 16 16 16 16 15
25 25 26 26 26 24 23 22 20 20 23 24 24 24 25 24 23 23 22 22 22 22 22 21 23 25 23 21 21 21 21 19 17 19 19 19 18 16 15 14 14 15 15 15 15 16 14 9 8 8 8 9 6 4 6 5 3 4 6 6 3 1 1 2 4 3 6 2 5 9 9 13 16 15 15 16 16 15 15 15 15 16 15 15 16
25 26 27 26 25 25 25 23 22 21 22 24 25 26 27 26 24 23 22 22 26 25 22 19 21 24 24 24 23 23 23 20 17 18 19 19 18 16 15 14 14 14 14 14 14 13 11 9 8 7 8 8 6 5 6 3 3 6 5 4 1 1 1 4 1 4 3 2 5 8 11 15 17 16 15 16 15 14 14 14 15 15 14 15 16
25 26 29 30 28 27 26 25 25 24 22 23 26 28 26 25 23 21 19 19 23 23 20 18 19 21 22 22 24 25 24 20 17 18 17 16 17 16 15 13 13 13 12 11 10 10 10 9 7 7 7 6 4 5 5 2 3 5 4 2 1 2 2 1 4 2 2 3 4 7 11 16 17 16 15 15 14 14 13 14 15 15 15 15 16
27 28 29 32 33 33 32 31 28 27 25 23 25 28 24 22 22 20 18 17 19 22 22 22 24 25 22 20 23 26 24 21 17 17 16 14 15 14 14 13 11 12 12 12 12 11 10 9 7 8 8 7 6 5 4 2 1 3 4 4 2 2 1 3 6 0 3 5 4 5 10 16 17 15 15 14 13 13 12 14 15 15 16 16 18
29 30 30 32 36 37 37 36 33 28 28 26 23 25 23 22 24 23 22 21 20 23 26 27 26 28 26 22 23 23 23 23 20 20 18 17 15 14 13 14 12 13 14 15 15 14 12 9 9 9 10 10 7 6 5 4 1 1 3 3 3 2 1 3 3 1 4 6 7 7 10 16 16 13 15 14 12 12 12 14 15 15 16 16 18
33 32 32 35 39 38 36 37 37 33 35 33 25 23 23 23 27 28 27 26 24 24 27 28 25 25 26 23 22 21 21 22 22 22 22 20 19 16 14 14 13 13 16 16 15 14 13 11 10 11 11 10 8 6 5 4 2 1 1 2 3 2 1 1 2 2 3 3 6 9 11 16 15 13 14 13 10 10 12 13 14 15 16 16 18
38 36 37 40 42 41 38 38 39 39 40 38 32 28 25 24 25 26 26 26 26 23 22 24 23 23 25 22 21 23 24 23 21 21 22 22 22 20 17 17 15 13 15 15 13 13 14 12 10 8 8 9 8 5 5 4 4 3 2 3 3 4 4 3 3 2 1 1 3 4 7 13 11 10 12 10 7 8 10 12 13 14 14 14 17
38 38 41 41 40 41 39 38 39 39 40 40 39 36 30 27 26 24 25 25 23 22 19 19 21 22 24 25 25 25 25 25 23 23 22 22 21 21 20 20 19 16 15 16 14 13 13 11 10 10 9 9 6 4 5 5 5 5 5 5 5 4 4 4 4 3 2 2 2 2 5 9 6 4 8 8 5 4 7 10 12 13 13 12 15
37 38 39 38 38 37 36 36 36 37 38 40 41 39 32 29 27 26 26 25 23 22 21 19 19 20 20 23 27 27 25 24 25 25 22 20 20 19 18 18 18 17 16 15 14 14 13 12 11 10 9 8 6 6 5 5 6 6 6 6 6 6 6 5 5 4 3 4 3 4 4 5 4 3 5 8 4 3 5 8 10 12 11 11 13
34 35 35 36 37 36 35 36 35 35 36 36 35 34 30 28 29 28 27 27 25 23 24 24 23 23 22 23 26 27 25 25 25 25 22 21 20 19 17 16 15 15 16 15 15 15 14 13 11 10 10 10 9 8 6 6 6 6 6 6 6 6 5 4 5 5 3 4 4 4 4 4 5 4 4 8 5 3 3 6 8 10 10 10 12
Wind_Direction
145 148 148 141 139 146 138 132 125 121 120 117 116 111 105 100 92 85 84 82 82 82 81 81 81 83 84 88 87 81 79 78 76 77 77 75 74 73 71 71 72 75 78 81 82 80 78 77 77 75 75 75 76 77 77 76 75 74 73 70 67 66 64 64 64 64 63 61 63 61 60 59 56 55 53 48 45 46 45 54 55 47 45 40 42
145 147 145 141 140 143 138 133 127 124 121 119 116 112 106 99 94 86 83 86 85 82 83 85 86 87 86 85 87 86 85 84 80 79 81 80 79 77 75 74 75 80 82 80 79 78 78 79 78 78 76 76 77 78 78 76 75 72 68 65 62 59 56 54 53 53 53 52 53 51 48 50 54 55 53 48 44 47 46 54 58 52 47 42 43
139 144 142 140 139 140 136 129 126 124 121 120 116 113 108 102 96 87 83 88 90 88 87 88 89 90 89 88 89 89 87 87 84 84 85 86 84 82 80 79 79 80 81 81 80 79 79 79 78 77 77 77 77 79 78 74 71 68 63 60 55 52 50 48 45 44 44 45 54 55 47 45 53 58 57 55 52 52 52 54 58 57 53 49 47
137 139 139 139 137 137 131 127 123 123 123 122 119 114 109 104 96 88 87 91 95 96 95 93 93 93 91 91 90 90 89 89 87 86 87 88 88 86 85 82 80 80 81 85 87 84 81 80 76 76 78 78 77 78 75 71 68 64 61 57 54 52 49 47 45 43 42 47 60 61 58 56 57 58 58 57 55 53 53 55 58 58 54 51 48
136 136 141 140 141 138 128 128 125 124 124 123 122 116 107 101 96 91 94 96 95 96 99 95 93 95 93 94 92 91 90 90 90 89 90 92 92 89 88 84 82 84 85 85 85 85 82 78 75 77 80 79 79 77 73 69 66 63 60 57 55 52 49 48 46 47 52 58 64 62 62 65 61 57 56 55 54 52 52 55 54 53 49 43 45
136 136 141 144 146 140 131 132 130 126 124 125 122 113 105 103 100 95 97 96 96 100 103 97 95 100 99 95 94 94 92 91 92 90 91 94 96 93 89 86 84 85 85 84 83 83 82 79 77 79 80 81 80 77 73 70 66 64 61 58 55 52 50 49 47 54 59 58 59 61 62 64 62 57 53 52 51 51 52 53 50 47 44 40 43
136 136 140 146 144 142 139 135 135 131 127 129 121 112 109 108 105 99 98 95 99 104 103 98 98 104 103 99 97 96 96 95 94 94 96 98 100 97 92 88 87 85 84 86 88 88 86 83 80 78 80 83 81 78 74 70 67 64 61 58 56 53 50 49 49 56 61 57 56 60 61 62 62 56 50 50 48 48 49 49 49 46 43 38 40
136 136 141 145 142 144 142 141 140 135 132 130 122 116 116 116 111 104 100 100 109 109 102 103 105 106 102 103 106 103 100 98 96 97 101 102 102 101 96 89 88 87 84 85 87 88 87 85 82 78 78 80 80 78 74 70 67 62 59 57 55 53 50 50 51 53 56 55 57 57 58 59 58 54 48 47 45 44 47 46 45 44 44 37 36
138 137 142 144 145 144 139 145 141 135 136 130 124 120 121 121 117 110 104 107 115 113 110 111 111 109 104 102 103 102 101 100 99 97 98 99 102 103 98 90 89 88 85 85 87 87 86 85 83 79 76 76 76 75 72 69 64 61 58 56 54 51 49 49 49 50 51 53 56 55 58 57 52 52 47 44 43 42 47 48 43 41 43 39 38
139 141 143 144 150 146 141 145 140 139 140 131 126 125 123 119 117 113 112 114 112 109 110 111 112 111 109 107 103 102 102 102 101 100 101 102 104 105 100 97 94 91 87 87 88 87 86 85 83 79 76 74 74 73 70 66 63 59 56 54 52 49 48 50 47 45 50 55 58 55 55 56 53 53 45 40 39 36 40 45 42 39 40 38 37
140 144 145 147 154 150 146 147 144 143 140 136 133 132 127 118 118 115 115 120 116 110 110 113 121 117 111 110 107 107 106 104 102 102 101 102 106 105 101 98 94 90 88 86 85 85 85 84 82 81 77 75 74 72 67 64 61 57 54 51 50 47 48 53 49 45 52 57 59 54 50 54 54 49 40 37 37 31 33 39 40 38 36 32 30
142 143 146 149 155 152 149 149 147 144 142 141 136 136 132 125 125 116 117 124 120 116 115 119 125 118 111 109 109 110 109 104 101 103 101 101 102 101 100 98 92 88 86 84 85 85 85 84 81 80 78 76 75 72 66 62 58 54 52 49 48 47 48 54 51 47 53 57 56 52 50 50 47 43 41 39 37 33 33 37 38 36 32 28 24
142 143 144 146 153 150 148 151 150 148 148 147 140 138 133 130 131 120 120 127 125 122 124 126 117 111 110 112 114 112 108 103 102 103 102 101 99 100 101 99 94 90 88 87 86 84 83 83 80 81 78 77 74 71 66 61 58 53 50 47 46 46 48 51 50 49 50 53 53 51 50 47 46 44 40 39 36 35 35 34 32 29 26 26 22
142 144 144 145 154 153 148 151 154 152 150 148 144 140 132 134 136 127 126 132 132 127 131 133 114 108 111 120 120 114 110 106 105 102 100 100 96 99 99 97 97 92 93 91 88 87 85 84 80 81 77 75 72 69 66 60 56 51 47 46 44 44 48 47 45 48 46 48 50 49 49 49 54 43 34 41 36 33 36 31 27 24 20 22 22
146 148 148 147 153 159 155 153 156 153 150 149 146 138 132 141 141 135 136 140 136 129 131 135 121 112 111 121 121 115 114 110 106 102 100 102 99 98 97 97 99 97 97 92 90 91 92 90 85 84 78 73 70 66 61 56 50 45 43 42 41 40 47 49 42 45 44 44 45 47 48 49 55 39 31 38 24 22 32 28 22 20 17 15 16
152 153 152 151 151 157 159 160 163 159 156 152 149 141 139 147 145 144 150 145 138 134 136 139 130 122 120 121 116 112 111 110 115 115 106 102 100 97 95 95 99 103 103 99 95 95 100 97 89 84 78 70 64 60 53 48 43 39 38 37 39 35 42 50 42 41 42 42 42 46 45 37 40 37 27 16 7 360 10 15 14 13 14 14 13
159 159 157 156 154 155 158 167 170 167 165 160 156 152 153 157 152 154 161 154 145 146 151 152 135 124 128 126 121 118 114 110 118 129 122 109 104 103 103 99 97 104 113 115 110 109 114 105 93 79 69 63 54 49 41 38 34 32 33 31 35 33 37 46 42 36 38 38 37 38 35 23 31 35 14 2 9 351 347 359 3 3 3 7 12
165 163 163 162 159 158 159 169 168 165 166 162 162 164 168 167 163 164 167 162 153 155 159 158 144 126 123 122 123 121 116 111 110 125 132 118 108 111 115 112 106 110 120 124 125 123 126 120 107 81 57 50 39 33 27 25 24 24 26 26 29 29 32 42 38 29 31 31 31 30 27 24 35 35 10 5 12 354 339 344 349 351 351 353 360
172 168 171 171 167 163 163 169 167 167 166 164 169 176 181 175 171 171 171 167 160 162 162 162 162 148 131 123 126 123 116 111 109 119 126 111 97 101 111 120 117 116 118 116 121 115 117 140 146 124 28 20 14 12 11 10 13 14 17 20 21 24 30 34 27 22 26 21 22 21 16 21 32 28 6 359 359 353 341 335 339 343 345 343 344
181 177 179 180 177 171 170 173 171 173 171 169 173 176 187 184 178 176 175 173 169 171 170 168 170 171 168 152 144 140 127 117 117 124 123 103 87 85 90 111 114 115 117 119 127 119 110 126 146 156 11 356 354 354 355 358 360 4 7 10 15 23 26 22 16 17 16 9 12 6 2 8 12 9 355 344 342 346 347 339 335 337 337 335 333
188 187 188 188 186 181 179 179 179 181 180 179 176 177 186 184 181 181 180 180 179 179 176 173 168 173 184 183 177 161 140 125 129 136 125 100 81 71 72 91 107 117 121 132 138 127 114 109 125 149 29 355 354 354 349 351 351 355 360 4 14 22 13 10 10 8 3 1 360 350 353 356 354 355 345 338 338 340 348 343 332 327 325 323 322
188 191 193 193 190 187 187 186 187 187 185 185 179 178 178 173 176 182 183 185 188 186 181 179 173 171 177 180 180 173 158 143 147 151 131 104 79 68 75 83 95 113 119 129 131 118 118 116 117 100 39 16 14 9 360 358 357 357 359 4 13 12 2 1 1 358 354 353 349 342 348 350 346 347 339 335 337 337 339 336 329 325 322 321 320
189 192 193 195 191 189 192 190 192 191 185 185 180 174 172 168 170 175 179 186 191 186 181 181 179 175 169 164 168 175 171 158 158 153 132 112 95 80 79 82 88 106 114 116 117 111 110 109 100 76 54 37 32 26 17 11 6 4 5 7 6 360 358 358 356 354 349 350 351 346 348 349 346 346 340 333 331 331 330 328 327 326 324 324 324
191 193 193 195 194 191 193 190 193 194 189 185 182 173 172 172 170 172 174 179 187 185 182 182 182 182 175 167 167 168 164 158 155 148 137 122 107 92 82 80 81 94 110 110 104 98 90 87 83 69 53 40 33 26 21 16 12 11 9 7 2 1 1 360 358 356 349 348 347 343 343 344 342 342 340 334 327 327 325 324 324 323 324 324 324
192 196 196 195 195 194 192 192 195 195 191 187 185 178 175 177 175 174 173 175 182 183 184 186 185 185 181 178 173 164 157 154 147 137 131 116 102 93 85 81 78 83 97 101 92 81 75 77 72 59 48 40 34 29 26 23 19 17 12 9 5 3 1 357 354 352 347 340 334 332 334 334 334 333 333 331 328 328 325 323 322 321 321 320 320
193 198 201 198 196 196 193 192 194 194 191 188 189 187 181 179 180 178 175 176 179 182 183 185 185 183 182 179 172 164 157 149 140 130 115 101 93 89 85 82 78 80 88 92 86 78 75 74 67 58 50 43 35 27 25 24 22 16 8 5 2 359 359 355 349 346 342 336 332 329 328 329 328 327 325 325 325 327 325 323 322 320 320 320 319
198 200 202 199 196 196 195 193 192 193 193 190 190 191 188 184 185 182 181 181 179 181 182 182 183 181 179 176 171 168 160 150 136 123 111 99 93 89 85 81 79 78 82 84 80 76 75 69 61 50 40 33 22 13 9 7 6 1 354 352 352 353 354 348 341 341 341 337 336 335 333 329 325 324 321 321 322 322 323 322 322 321 322 321 320
202 203 201 198 197 195 195 195 195 194 193 194 193 195 195 192 190 187 189 190 183 182 184 184 184 182 180 176 174 173 164 154 138 122 117 107 102 98 89 83 80 79 79 81 78 74 71 55 37 21 13 12 2 351 346 345 345 342 341 340 339 341 340 336 334 335 335 331 332 336 336 331 326 325 324 324 323 323 324 324 325 325 324 324 323
206 207 206 203 198 195 194 196 199 197 194 194 197 199 200 199 196 194 195 196 191 189 189 190 189 186 185 181 177 175 171 166 160 150 137 125 125 114 101 92 85 84 80 78 71 64 57 22 350 331 329 338 336 326 329 339 337 331 333 332 328 329 328 328 330 328 326 326 330 332 331 330 327 327 330 330 331 332 334 336 340 341 338 335 333
211 210 212 210 203 198 196 196 199 200 197 196 200 201 202 203 202 201 202 199 196 197 197 199 199 196 194 190 185 182 183 186 188 181 170 177 167 146 135 112 91 81 71 48 19 24 9 329 309 300 300 309 313 310 322 333 331 325 326 325 321 321 321 322 324 326 328 332 337 336 333 333 332 334 340 345 350 354 356 1 4 359 355 351 346
213 209 213 215 210 204 201 199 199 201 201 201 204 205 206 206 205 207 208 204 201 202 202 205 207 207 205 202 199 196 196 196 196 193 187 199 195 183 176 141 131 331 3 339 331 332 325 314 289 289 292 299 302 301 314 320 319 320 318 318 317 317 319 317 320 327 334 339 344 347 349 351 354 358 6 13 13 11 10 10 9 7 6 2 356
214 212 211 216 217 212 208 205 203 204 204 205 208 210 211 210 208 210 212 210 208 207 207 210 212 214 214 211 210 209 209 206 204 201 193 198 198 192 194 197 233 281 320 311 309 311 309 306 296 293 296 303 308 304 309 311 310 313 314 317 321 323 324 321 324 331 338 348 357 3 5 5 10 17 22 19 12 8 6 5 3 5 5 360 356
214 214 211 215 221 219 216 213 210 210 209 209 211 214 216 215 214 215 216 215 215 214 214 217 218 219 221 220 220 220 218 218 213 201 188 190 194 189 204 233 251 270 289 288 284 291 293 292 292 292 294 299 302 301 304 307 307 312 316 323 331 332 331 330 333 336 343 359 10 8 6 7 12 15 11 5 2 360 358 358 357 356 355 352 351
211 212 212 212 218 221 221 220 217 216 214 214 216 218 220 220 220 220 221 221 221 221 221 222 224 225 228 227 227 225 222 219 212 203 193 191 207 225 235 248 258 262 271 276 277 285 289 286 285 285 288 292 292 295 299 302 305 313 322 329 333 333 333 336 340 343 354 14 14 12 16 18 15 7 359 356 355 354 354 354 351 349 348 348 350
209 210 211 210 213 218 222 223 223 222 220 219 219 222 224 224 225 225 225 224 225 227 226 227 227 227 229 230 230 225 219 215 207 207 206 203 219 239 246 248 250 253 255 264 273 284 297 292 280 279 286 291 292 294 296 297 302 310 318 323 325 330 334 336 345 356 14 26 13 18 29 20 9 360 356 357 355 354 355 353 349 349 350 353 358
211 212 212 212 213 215 219 222 224 225 224 224 224 226 227 227 227 228 228 227 227 228 229 230 229 228 228 230 230 223 216 213 211 214 218 222 232 239 242 237 237 248 249 262 266 267 304 308 282 277 282 293 297 293 292 295 302 308 313 315 317 324 333 335 348 6 31 22 11 24 26 10 5 3 2 3 2 359 360 358 357 359 2 7 11
213 214 213 214 215 215 217 218 222 224 225 227 227 228 229 229 229 230 230 228 227 227 227 227 227 227 227 228 227 221 218 218 220 225 228 235 241 243 244 236 237 246 243 257 262 256 292 316 302 285 284 293 294 294 296 301 307 311 311 311 313 320 330 337 347 16 28 10 11 26 14 6 7 11 11 11 13 9 8 11 15 20 21 22 26
216 217 216 216 217 216 218 219 220 222 224 226 228 230 231 231 231 230 230 228 227 225 225 225 226 226 225 225 224 221 223 223 226 231 235 242 245 249 250 239 239 242 238 252 266 271 276 288 298 288 291 294 290 296 300 308 313 312 311 310 314 318 322 332 345 38 11 5 25 25 10 10 14 16 19 21 21 20 21 25 31 37 37 37 40
217 219 219 219 219 218 219 222 222 219 222 224 227 229 231 232 232 230 229 227 225 223 224 225 226 227 226 226 226 224 227 228 229 232 238 243 244 249 249 243 245 240 239 252 264 273 270 276 290 284 288 289 290 297 296 307 313 311 315 315 321 321 314 327 84 56 8 10 47 20 12 19 19 21 28 30 29 31 35 39 43 46 45 44 44
217 218 218 219 220 221 219 221 223 220 220 221 223 224 225 228 229 228 225 224 222 220 224 224 225 230 229 227 227 227 231 232 233 235 240 243 246 250 248 246 248 239 240 251 258 268 268 272 281 274 277 284 290 294 292 309 313 310 312 313 318 310 304 309 151 45 12 38 43 16 19 26 23 27 33 35 35 39 45 48 49 49 46 44 41
219 217 217 218 219 221 221 222 223 220 218 218 219 218 218 220 222 222 223 223 222 222 226 226 228 234 234 231 228 228 232 234 234 235 241 245 246 248 246 245 248 243 245 250 255 265 266 265 270 267 268 279 288 290 296 311 312 312 316 312 307 290 312 170 159 28 13 64 22 13 26 28 28 32 33 35 35 41 49 50 50 47 42 40 36
217 217 217 217 218 221 223 223 223 221 220 220 220 221 221 222 222 224 225 226 226 226 228 228 230 235 237 235 232 230 232 237 236 233 238 243 241 241 242 245 249 249 249 250 255 262 260 258 262 263 263 267 269 275 294 302 301 314 317 307 294 267 315 165 173 360 12 63 12 18 34 29 29 33 33 32 32 40 51 51 47 43 38 35 31
218 219 218 217 218 221 223 223 224 222 222 222 221 224 226 226 226 227 227 228 232 232 231 231 231 233 235 235 234 232 231 236 238 235 236 239 239 241 243 244 244 245 247 249 253 256 254 252 251 252 263 264 257 271 285 290 302 308 302 290 327 337 185 159 214 327 11 43 19 25 34 27 24 30 33 31 31 40 50 50 47 39 32 29 26
217 218 219 220 220 219 220 221 222 222 222 224 224 226 229 229 229 230 230 231 235 235 232 230 228 229 230 229 231 232 228 229 237 239 238 238 238 239 238 238 240 241 242 244 244 246 247 243 238 241 253 257 245 260 266 264 310 313 307 290 311 296 184 95 331 312 72 44 39 30 26 23 20 26 33 31 33 42 48 46 43 34 26 22 19
215 217 217 221 222 222 223 222 222 221 219 221 225 226 226 225 226 227 227 226 228 229 228 228 229 229 229 225 229 233 226 222 230 234 236 243 238 228 229 233 237 237 232 235 236 238 242 233 230 241 250 251 231 222 222 216 295 320 313 299 272 270 108 4 332 82 69 24 44 39 25 21 17 24 33 32 33 40 45 41 35 27 21 16 13
217 218 217 220 224 226 227 226 223 219 219 220 221 222 220 218 219 216 214 215 218 222 225 227 229 231 231 229 232 236 231 227 230 231 234 244 240 229 232 233 233 234 232 238 240 238 239 233 233 248 257 250 222 190 192 193 183 306 303 290 276 290 25 350 329 21 7 8 30 29 19 15 17 25 30 34 34 39 43 35 28 22 16 11 9
219 219 220 224 228 228 226 227 226 224 227 227 219 217 217 217 218 217 217 217 219 224 229 230 230 231 232 231 232 233 232 230 232 233 235 241 241 233 230 227 229 234 233 238 241 233 235 242 248 254 250 227 196 177 183 182 187 248 279 257 236 227 221 280 302 319 331 360 15 11 4 4 18 27 24 33 39 42 44 29 20 16 10 6 5
222 221 224 228 229 228 226 227 229 228 231 230 224 220 219 217 219 220 222 222 223 227 229 230 229 229 231 229 227 226 227 227 228 231 235 238 237 232 230 227 226 232 232 234 235 230 236 242 235 224 208 192 182 187 196 206 231 232 215 205 207 215 219 227 227 249 278 299 335 350 342 346 8 27 24 36 38 42 43 22 14 9 2 3 2
223 223 226 228 227 227 227 227 229 230 230 230 229 227 222 220 220 220 222 224 225 225 225 226 225 225 227 227 226 225 226 226 225 227 230 233 233 232 234 232 229 235 236 232 226 220 220 216 200 191 192 194 199 215 222 232 228 208 198 192 191 193 178 176 187 198 211 240 293 297 309 326 340 3 18 33 40 57 47 17 9 3 357 359 356
224 225 227 226 225 225 225 226 227 228 229 230 229 227 222 220 220 219 221 221 220 221 221 220 217 216 219 222 224 224 224 224 226 226 225 225 226 226 233 235 233 233 224 212 205 196 192 193 196 204 215 223 233 238 230 213 191 183 190 187 181 174 161 164 175 183 197 210 248 273 277 303 309 305 358 25 56 105 53 18 6 358 353 352 350
226 226 226 225 225 224 224 225 226 225 227 228 226 223 220 219 219 219 219 218 217 216 215 213 212 213 215 218 221 221 220 221 225 225 221 219 219 222 228 227 217 208 199 192 191 190 195 200 208 219 229 237 240 236 216 184 172 173 178 182 184 176 168 167 166 173 193 206 239 266 259 277 288 275 333 14 54 119 46 18 3 355 350 344 343